Find Starlink 5964

NORAD ID: 56009 Int'l Des: 2023-042 Owner: SPXS Country: US Constellation: starlink operational
LEOCIRCULAR

現在のビュー

3D地球を読み込み中...

About Starlink 5964

Starlink 5964 (NORAD 56009) is a starlink constellation satellite (v1.5) launched Mar 24, 2023 by SPXS of US. It operates in LEO, CIRCULAR orbit with a mass of 305.00 kg.

次回通過

Passes for default location (London). Set your location on the main map for personalized predictions.

高度履歴

Loading altitude history...

軌道要素

1 56009U 23042Z 26254.87348400 -.00000155 00000-0 39155-5 0 9994
2 56009 43.0051 91.5659 0001738 273.3026 86.7627 15.27575715191307
Epoch: Sep 11, 2026 • Age: 28 hours

現在のステータス

高度 487.4 km
遠地点 / 近地点 N/A
速度 7.62 km/s
衛星直下点 -21.09°S, 71.13°W
打ち上げ日 Mar 24, 2023
運用期間 3.4 years
タイプ internet

技術仕様

分類 Payload
質量 305.00 kg
乾燥質量 290.00 kg
総質量 305.00 kg
長さ 0.20 m
直径 2.80 m
スパン 9.00 m
形状 Box + pan
製造者 SPXS
バスタイプ Starlink
フェーズステータス In Orbit
所有者/国 SPXS/US

Most Searched